Find Starlink 3639

NORAD ID: 51789 Int'l Des: 2022-017 Owner: SPXS Country: US Constellation: starlink operational
LEOCIRCULAR

現在のビュー

3D地球を読み込み中...

About Starlink 3639

Starlink 3639 (NORAD 51789) is a starlink constellation satellite (v1.5) launched Feb 25, 2022 by SPXS of US. It operates in LEO, CIRCULAR orbit with a mass of 297.00 kg.

Starlink 3639について

説明を読み込み中...

次回通過

Passes for default location (London). Set your location on the main map for personalized predictions.

高度履歴

Loading altitude history...

軌道要素

1 51789U 22017X 26195.16668980 .00080387 00000-0 24421-2 0 9990
2 51789 53.1609 139.5712 0001188 46.3892 309.6470 15.33384418 5682
Epoch: Jul 14, 2026 • Age: 5 hours

現在のステータス

高度 471.3 km
遠地点 / 近地点 N/A
速度 7.64 km/s
衛星直下点 52.38°N, 145.6°E
打ち上げ日 Feb 25, 2022
運用期間 4.3 years
タイプ internet

技術仕様

分類 Payload
質量 297.00 kg
乾燥質量 275.00 kg
総質量 297.00 kg
長さ 0.20 m
直径 2.80 m
スパン 9.00 m
形状 Box + pan
製造者 SPXS
バスタイプ Starlink
フェーズステータス In Orbit
所有者/国 SPXS/US

Most Searched